Storm Lake, IA

6:29 PM CDT on March 27, 2017 (GMT -0500)
Storm Lake Municipal

Weather History for KSLB - April, 2013

Change the Weather History Date:

Wednesday, April 17, 2013

  Actual Average Record
Temperature  
Mean Temperature 36 °F -  
Max Temperature 39 °F 59 °F 82 °F (2005)
Min Temperature 33 °F 39 °F 23 °F (1997)
Degree Days  
Heating Degree Days 29    
Moisture  
Dew Point 35 °F    
Average Humidity 92    
Maximum Humidity 100    
Minimum Humidity 75    
Precipitation  
Precipitation 0.20 in - - ()
Sea Level Pressure  
Sea Level Pressure 29.98 in    
Wind  
Wind Speed 19 mph (NE)    
Max Wind Speed 25 mph    
Max Gust Speed 37 mph    
Visibility 6 miles    
Events Rain , Snow    
Averages and records for this station are not official NWS values.
T = Trace of Precipitation, MM = Missing Value Source: NWS Daily Summary

Daily Weather History Graph

Daily Weather History Graph

Search for Another Location

Airport or City:

Trip Planner

Search our weather history database for the weather conditions in past years. The results will help you decide how hot, cold, wet, or windy it might be!

Date:

Astronomy

Apr. 17, 2013 Rise Set
Actual Time 6:36 AM CDT 8:05 PM CDT
Civil Twilight 6:06 AM CDT 8:35 PM CDT
Nautical Twilight 5:31 AM CDT 9:10 PM CDT
Astronomical Twilight 4:53 AM CDT 9:48 PM CDT
Moon 11:48 AM CDT (4/17) 1:46 AM CDT (4/17)
Length of Visible Light 14h 28m
Length of Day
13h 29m
Waxing Crescent, 42% of the Moon is Illuminated
Apr 17
Waxing Crescent
Apr 18
First Quarter
Apr 25
Full
May 2
Last Quarter
May 9
New

Hourly Weather History & Observations

Time (CDT) Temp. Windchill Dew Point Humidity Pressure Visibility Wind Dir Wind Speed Gust Speed Precip Events Conditions
12:15 AM 39.2 °F 30.2 °F 32.0 °F 75% 30.20 in 10.0 mi ENE 17.3 mph 24.2 mph N/A   Overcast
12:35 AM 39.2 °F 29.8 °F 32.0 °F 75% 30.20 in 10.0 mi ENE 18.4 mph 26.5 mph N/A   Overcast
12:55 AM 39.2 °F 30.8 °F 32.0 °F 75% 30.20 in 10.0 mi ENE 15.0 mph 24.2 mph N/A   Overcast
1:15 AM 39.2 °F 29.6 °F 32.0 °F 75% 30.20 in 10.0 mi NE 19.6 mph - N/A   Overcast
1:35 AM 37.4 °F 28.5 °F 32.0 °F 81% 30.20 in 10.0 mi NE 15.0 mph 23.0 mph N/A   Overcast
1:55 AM 37.4 °F 28.5 °F 32.0 °F 81% 30.20 in 10.0 mi ENE 15.0 mph - N/A   Overcast
2:15 AM 37.4 °F 27.5 °F 32.0 °F 81% 30.19 in 10.0 mi ENE 18.4 mph - N/A   Overcast
2:35 AM 37.4 °F 27.8 °F 32.0 °F 81% 30.19 in 10.0 mi ENE 17.3 mph - N/A   Overcast
2:55 AM 37.4 °F 27.2 °F 32.0 °F 81% 30.16 in 10.0 mi ENE 19.6 mph - N/A   Overcast
3:15 AM 37.4 °F 26.9 °F 32.0 °F 81% 30.14 in 10.0 mi NE 20.7 mph 27.6 mph N/A   Overcast
3:35 AM 37.4 °F 27.2 °F 32.0 °F 81% 30.10 in 10.0 mi NE 19.6 mph - N/A   Overcast
3:55 AM 37.4 °F 27.8 °F 32.0 °F 81% 30.11 in 10.0 mi NE 17.3 mph - N/A   Overcast
4:15 AM 37.4 °F 26.9 °F 32.0 °F 81% 30.10 in 10.0 mi ENE 20.7 mph - N/A   Overcast
4:35 AM 37.4 °F 27.8 °F 32.0 °F 81% 30.11 in 10.0 mi NE 17.3 mph - N/A   Overcast
4:55 AM 37.4 °F 27.8 °F 32.0 °F 81% 30.11 in 10.0 mi ENE 17.3 mph 26.5 mph N/A   Overcast
5:15 AM 37.4 °F 28.2 °F 32.0 °F 81% 30.13 in 10.0 mi NE 16.1 mph - N/A   Overcast
5:35 AM 37.4 °F 27.5 °F 32.0 °F 81% 30.11 in 10.0 mi NE 18.4 mph 24.2 mph N/A   Overcast
5:55 AM 37.4 °F 28.5 °F 32.0 °F 81% 30.13 in 10.0 mi NNE 15.0 mph 21.9 mph N/A   Overcast
6:15 AM 37.4 °F 26.9 °F 32.0 °F 81% 30.07 in 10.0 mi NE 20.7 mph - N/A   Overcast
6:35 AM 37.4 °F 26.6 °F 32.0 °F 81% 30.05 in 10.0 mi NE 21.9 mph - N/A   Overcast
6:55 AM 37.4 °F 26.6 °F 32.0 °F 81% 30.05 in 10.0 mi NE 21.9 mph 28.8 mph N/A   Overcast
7:15 AM 37.4 °F 28.9 °F 32.0 °F 81% 30.11 in 9.0 mi NE 13.8 mph 25.3 mph N/A Rain Light Rain
7:35 AM 35.6 °F 28.6 °F 32.0 °F 87% 30.16 in 1.8 mi NNE 9.2 mph - N/A Rain Heavy Rain
7:55 AM 35.6 °F 27.1 °F 33.8 °F 93% 30.14 in 1.5 mi NE 12.7 mph - N/A Rain Heavy Rain
8:15 AM 35.6 °F 25.5 °F 33.8 °F 93% 30.08 in 1.2 mi NE 17.3 mph - N/A Rain Heavy Rain
8:35 AM 35.6 °F 24.8 °F 33.8 °F 93% 30.08 in 1.8 mi NE 19.6 mph - N/A Rain Heavy Rain
9:15 AM 35.6 °F 23.7 °F 35.6 °F 100% 30.01 in 3.0 mi ENE 24.2 mph 31.1 mph N/A Rain Rain
9:35 AM 37.4 °F 26.6 °F 35.6 °F 93% 30.02 in 7.0 mi ENE 21.9 mph 29.9 mph N/A   Light Drizzle
9:55 AM 37.4 °F 26.6 °F 35.6 °F 93% 30.04 in 6.0 mi ENE 21.9 mph 28.8 mph N/A Rain Light Rain
10:15 AM 37.4 °F 25.9 °F 37.4 °F 100% 30.00 in 8.0 mi ENE 25.3 mph 32.2 mph N/A   Light Drizzle
10:35 AM 37.4 °F 26.6 °F 37.4 °F 100% 30.00 in 7.0 mi ENE 21.9 mph 28.8 mph N/A   Overcast
10:55 AM 37.4 °F 27.5 °F 37.4 °F 100% 30.03 in 7.0 mi East 18.4 mph 25.3 mph N/A   Overcast
11:15 AM 37.4 °F 26.1 °F 37.4 °F 100% 30.00 in 7.0 mi ENE 24.2 mph - N/A   Overcast
11:35 AM 39.2 °F 29.0 °F 37.4 °F 93% 30.00 in 9.0 mi East 21.9 mph 29.9 mph N/A   Overcast
11:55 AM 39.2 °F 29.0 °F 37.4 °F 93% 29.98 in 10.0 mi ENE 21.9 mph 29.9 mph N/A   Overcast
12:15 PM 39.2 °F 28.7 °F 37.4 °F 93% 29.96 in 10.0 mi ENE 23.0 mph 31.1 mph N/A   Overcast
12:35 PM 39.2 °F 28.3 °F 37.4 °F 93% 29.94 in 10.0 mi ENE 25.3 mph 32.2 mph N/A   Overcast
12:55 PM 39.2 °F 29.3 °F 37.4 °F 93% 29.94 in 10.0 mi ENE 20.7 mph 29.9 mph N/A   Overcast
1:15 PM 39.2 °F 29.0 °F 35.6 °F 87% 29.95 in 10.0 mi ENE 21.9 mph 29.9 mph N/A   Overcast
1:35 PM 39.2 °F 29.0 °F 37.4 °F 93% 29.96 in 10.0 mi ENE 21.9 mph 31.1 mph N/A   Overcast
1:55 PM 37.4 °F 26.4 °F 37.4 °F 100% 29.92 in 4.0 mi ENE 23.0 mph 28.8 mph N/A   Overcast
2:15 PM 37.4 °F 25.9 °F 37.4 °F 100% 29.91 in 1.2 mi ENE 25.3 mph 36.8 mph N/A   Overcast
2:35 PM 37.4 °F 26.6 °F 37.4 °F 100% 29.90 in 1.0 mi ENE 21.9 mph - N/A   Overcast
2:55 PM 37.4 °F 26.9 °F 37.4 °F 100% 29.91 in 1.5 mi ENE 20.7 mph - N/A   Light Drizzle
3:35 PM 37.4 °F 26.6 °F 37.4 °F 100% 29.87 in 0.8 mi NE 21.9 mph - N/A Rain Light Rain
3:55 PM 37.4 °F 26.9 °F 37.4 °F 100% 29.87 in 1.0 mi NE 20.7 mph 31.1 mph N/A   Overcast
4:15 PM 37.4 °F 26.9 °F 37.4 °F 100% 29.87 in 1.0 mi ENE 20.7 mph - N/A   Light Drizzle
4:35 PM 37.4 °F 27.2 °F 37.4 °F 100% 29.85 in 0.8 mi NE 19.6 mph 28.8 mph N/A   Light Drizzle
4:55 PM 37.4 °F 27.2 °F 37.4 °F 100% 29.83 in 1.5 mi ENE 19.6 mph 28.8 mph N/A   Light Drizzle
5:15 PM 37.4 °F 26.4 °F 37.4 °F 100% 29.82 in 1.5 mi NE 23.0 mph 33.4 mph N/A Rain Rain
5:35 PM 37.4 °F 26.9 °F 37.4 °F 100% 29.83 in 2.0 mi NE 20.7 mph 31.1 mph N/A   Light Drizzle
5:55 PM 37.4 °F 27.5 °F 37.4 °F 100% 29.83 in 1.8 mi ENE 18.4 mph 28.8 mph 0.05 in Rain Light Rain
6:15 PM 37.4 °F 29.3 °F 37.4 °F 100% 29.86 in 1.8 mi NE 12.7 mph 20.7 mph N/A Rain Heavy Rain
6:35 PM 37.4 °F 29.3 °F 37.4 °F 100% 29.88 in 3.0 mi NE 12.7 mph 19.6 mph N/A   Overcast
6:55 PM 37.4 °F 28.9 °F 37.4 °F 100% 29.88 in 2.0 mi NE 13.8 mph - 0.13 in Rain Heavy Rain
7:15 PM 37.4 °F 25.9 °F 37.4 °F 100% 29.76 in 4.0 mi NE 25.3 mph - N/A Rain Light Rain
7:35 PM 37.4 °F 27.5 °F 37.4 °F 100% 29.80 in 7.0 mi North 18.4 mph 27.6 mph N/A Rain Light Rain
7:55 PM 37.4 °F 27.2 °F 37.4 °F 100% 29.82 in 10.0 mi NNE 19.6 mph - 0.02 in   Overcast
8:15 PM 37.4 °F 26.9 °F 37.4 °F 100% 29.81 in 10.0 mi NNE 20.7 mph - N/A   Overcast
8:35 PM 37.4 °F 27.2 °F 37.4 °F 100% 29.82 in 10.0 mi NNE 19.6 mph - N/A   Overcast
8:55 PM 35.6 °F 24.5 °F 35.6 °F 100% 29.83 in 10.0 mi NNE 20.7 mph 27.6 mph N/A   Overcast
9:15 PM 35.6 °F 25.5 °F 35.6 °F 100% 29.83 in 10.0 mi NNE 17.3 mph - N/A   Overcast
9:35 PM 35.6 °F 25.5 °F 35.6 °F 100% 29.84 in 10.0 mi NNE 17.3 mph 25.3 mph N/A   Overcast
9:55 PM 35.6 °F 24.8 °F 35.6 °F 100% 29.84 in 5.0 mi North 19.6 mph - N/A   Light Drizzle
10:15 PM 35.6 °F 25.2 °F 35.6 °F 100% 29.84 in 1.5 mi North 18.4 mph 26.5 mph N/A   Overcast
10:35 PM 35.6 °F 24.8 °F 35.6 °F 100% 29.83 in 1.8 mi North 19.6 mph - N/A   Overcast
11:15 PM 33.8 °F 22.5 °F 33.8 °F 100% 29.81 in 1.8 mi North 19.6 mph 26.5 mph N/A Snow Light Snow
11:35 PM 33.8 °F 21.9 °F 33.8 °F 100% 29.82 in 2.5 mi North 21.9 mph - N/A Rain Light Rain
11:55 PM 33.8 °F 21.6 °F 33.8 °F 100% 29.79 in 2.5 mi North 23.0 mph - N/A Rain Light Rain